User: anonymous   Login
Location: Unspecified
(0.0000°N, 0.0000°E)
Time: 20:36:12
(UTC+00:00)
Language:

AISAT - Orbit

View from above orbital plane
View from above orbital plane
View from above satellite
View from above satellite

Ground track
Ground track

The orbit data is extracted from the following two-line orbital elements,

1 40054U 14034B   17234.25940386 +.00000520 +00000-0 +81180-4 0  9998
2 40054 098.1915 334.8644 0012966 187.8395 172.2614 14.77138590169470
Epoch (UTC): 22 August 2017 06:13:32
Eccentricity: 0.0012966
inclination: 98.1915°
perigee height: 629 km
apogee height: 647 km
right ascension of ascending node: 334.8644°
argument of perigee: 187.8395°
revolutions per day: 14.77138590
mean anomaly at epoch: 172.2614°
orbit number at epoch: 16947

The dashed part of the orbit path shows where the satellite is in the earth's shadow,  

DLR